Weather in Smile

Ukraine / Sumi District     50°55′27″N   33°35′10″E
temp.,
°C
wind,
m/s
gust,
m/s
humid.,
%
clouds,
%
prec.,
mm/h
press.,
hPa
HPBL,
m
16 may, sun
sun1600:00+13s338899 0.0 101132
03:00+11sw34925 0.0 101261
06:00+11sw23910 0.0 101361
09:00+16sw23730 0.0 1014427
12:00+20ssw2358100 0.0 10131027
15:00+21s2354100 0.0 10131320
18:00+21e0165100 0.0 1012413
21:00+16nne337669 0.0 101132
17 may, mon
mon1700:00+14ne4780100 0.0 1011112
03:00+14ne41093100 1.6 1009215
06:00+14ne4993100 0.4 1007224
09:00+18ene5881100 0.4 1005396
12:00+23se695881 0.0 10041053
15:00+23ese6861100 0.0 10031225
18:00+23ese5107535 0.0 1002822
21:00+19sse614853 0.2 1002589
18 may, tue
tue1800:00+17sse61485100 0.0 1003626
03:00+13se61390100 0.0 1003492
06:00+14se81391100 0.1 1002658
09:00+15sse71194100 0.3 1003665
12:00+20s7968100 0.1 10041334
15:00+20s7976100 2.5 10031226
18:00+16sse61284100 5.3 1003690
21:00+15se51295100 5.7 1002434
19 may, wed
wed1900:00+14sse51196100 0.0 1002377
03:00+12sw5897100 0.3 1003429
06:00+11ssw4896100 1.2 1004392
09:00+13ssw5784100 1.2 1004706
12:00+14ssw6778100 0.1 1004971
15:00+13s578290 0.3 1004763
18:00+12s5790100 0.3 1004658
21:00+11w81295100 0.6 1005674
20 may, thu
thu2000:00+9wsw81393100 0.3 1007967
03:00+10w81491100 0.7 1008900
06:00+9sw7119596 0.1 1010525
09:00+14wsw69780 0.1 1011740
12:00+17sw6763100 0.1 10121582
15:00+18wsw4556100 0.1 10121709
18:00+18sw1262100 0.1 10131195
21:00+13e2280100 0.2 101322